Weather History for KTUS - February, 2014

Change the Weather History Date:

Monday, February 3, 2014

  Actual Average Record
Temperature  
Mean Temperature 51 °F 54 °F  
Max Temperature 61 °F 67 °F 86 °F (1925)
Min Temperature 40 °F 41 °F 18 °F (2011)
Degree Days  
Heating Degree Days 14 11  
Month to date heating degree days 38 33  
Since 1 July heating degree days 733 1027  
Cooling Degree Days 0 0  
Month to date cooling degree days 0 0  
Year to date cooling degree days 1 1  
Moisture  
Dew Point 22 °F    
Average Humidity 46    
Maximum Humidity 76    
Minimum Humidity 15    
Precipitation  
Precipitation 0.01 in 0.03 in 0.45 in (1927)
Month to date precipitation 0.01 0.10  
Year to date precipitation 0.01 1.04  
Sea Level Pressure  
Sea Level Pressure 29.86 in    
Wind  
Wind Speed 8 mph (SSE)    
Max Wind Speed 21 mph    
Max Gust Speed 30 mph    
Visibility 10 miles    
Events      
T = Trace of Precipitation, MM = Missing Value Source: NWS Daily Summary

Daily Weather History Graph

Daily Weather History Graph

Search for Another Location

Airport or City:

Trip Planner

Search our weather history database for the weather conditions in past years. The results will help you decide how hot, cold, wet, or windy it might be!

Date:

Astronomy

Feb. 03, 2014 Rise Set
Actual Time 7:16 AM MST 5:59 PM MST
Civil Twilight 6:50 AM MST 6:25 PM MST
Nautical Twilight 6:21 AM MST 6:54 PM MST
Astronomical Twilight 5:52 AM MST 7:23 PM MST
Moon 9:38 AM MST (2/3) 10:33 PM MST (2/3)
Length of Visible Light 11h 34m
Length of Day
10h 43m
Waxing Crescent, 20% of the Moon is Illuminated
Feb 3
Waxing Crescent
Feb 6
First Quarter
Feb 14
Full
Feb 22
Last Quarter
Mar 1
New

Hourly Weather History & Observations

Time (MST) Temp. Windchill Dew Point Humidity Pressure Visibility Wind Dir Wind Speed Gust Speed Precip Events Conditions
12:53 AM 44.1 °F 39.5 °F 19.0 °F 37% 29.91 in 10.0 mi SE 8.1 mph - N/A   Clear
1:53 AM 43.0 °F 38.8 °F 19.9 °F 40% 29.91 in 10.0 mi SE 6.9 mph - N/A   Clear
2:53 AM 41.0 °F 35.8 °F 19.0 °F 41% 29.90 in 10.0 mi SSE 8.1 mph - N/A   Clear
3:53 AM 41.0 °F 35.8 °F 19.0 °F 41% 29.88 in 10.0 mi South 8.1 mph - N/A   Clear
4:53 AM 39.9 °F 34.5 °F 18.0 °F 41% 29.88 in 10.0 mi SE 8.1 mph - N/A   Clear
5:53 AM 42.1 °F 37.7 °F 18.0 °F 38% 29.86 in 10.0 mi SE 6.9 mph - N/A   Clear
6:53 AM 41.0 °F 36.4 °F 17.1 °F 38% 29.86 in 10.0 mi SE 6.9 mph - N/A   Clear
7:53 AM 43.0 °F 39.5 °F 17.1 °F 35% 29.87 in 10.0 mi SSE 5.8 mph - N/A   Partly Cloudy
8:53 AM 44.1 °F 40.1 °F 17.1 °F 34% 29.88 in 10.0 mi SE 6.9 mph - N/A   Partly Cloudy
9:53 AM 48.0 °F - 17.1 °F 29% 29.88 in 10.0 mi Calm Calm - N/A   Clear
10:53 AM 55.0 °F - 16.0 °F 22% 29.85 in 10.0 mi SSE 5.8 mph - N/A   Clear
11:53 AM 57.9 °F - 16.0 °F 19% 29.82 in 10.0 mi South 8.1 mph - N/A   Clear
12:53 PM 59.0 °F - 15.1 °F 18% 29.78 in 10.0 mi NW 8.1 mph - N/A   Scattered Clouds
1:53 PM 59.0 °F - 12.9 °F 16% 29.75 in 10.0 mi West 13.8 mph - N/A   Overcast
2:53 PM 57.9 °F - 12.9 °F 17% 29.75 in 10.0 mi NNW 8.1 mph 17.3 mph N/A   Overcast
3:53 PM 57.0 °F - 17.1 °F 21% 29.77 in 10.0 mi West 10.4 mph - N/A   Overcast
4:53 PM 55.0 °F - 19.0 °F 24% 29.80 in 10.0 mi NW 12.7 mph 20.7 mph N/A   Overcast
5:53 PM 48.9 °F - 33.1 °F 54% 29.85 in 10.0 mi SW 15.0 mph - N/A   Overcast
6:53 PM 48.9 °F - 32.0 °F 52% 29.87 in 10.0 mi SW 10.4 mph - N/A   Overcast
7:53 PM 48.0 °F - 35.1 °F 61% 29.87 in 10.0 mi ESE 8.1 mph - 0.01 in   Overcast
8:53 PM 44.1 °F 39.0 °F 37.0 °F 76% 29.91 in 10.0 mi South 9.2 mph - N/A   Clear
9:53 PM 43.0 °F 37.2 °F 36.0 °F 76% 29.91 in 10.0 mi SSE 10.4 mph - N/A   Clear
10:53 PM 43.0 °F 37.7 °F 35.1 °F 74% 29.91 in 10.0 mi South 9.2 mph - N/A   Clear
11:53 PM 41.0 °F 37.1 °F 34.0 °F 76% 29.91 in 10.0 mi SE 5.8 mph - N/A   Clear